Webb City, MO

3:04 PM CDT on July 23, 2016 (GMT -0500)
Joplin Regional

Weather History for KJLN - March, 2014

Change the Weather History Date:

Friday, March 14, 2014

  Actual Average Record
Temperature  
Mean Temperature 55 °F 48 °F  
Max Temperature 67 °F 59 °F 80 °F (1971)
Min Temperature 42 °F 37 °F 8 °F (1975)
Degree Days  
Heating Degree Days 10 17  
Month to date heating degree days 359 264  
Since 1 July heating degree days 4208 3518  
Cooling Degree Days 0 0  
Month to date cooling degree days 0 0  
Year to date cooling degree days 0 1  
Growing Degree Days 6 (Base 50)    
Moisture  
Dew Point 28 °F    
Average Humidity 38    
Maximum Humidity 53    
Minimum Humidity 22    
Precipitation  
Precipitation 0.00 in 0.11 in 2.32 in (1990)
Month to date precipitation 0.50 1.45  
Year to date precipitation 1.35 5.80  
Sea Level Pressure  
Sea Level Pressure 29.94 in    
Wind  
Wind Speed 12 mph (SW)    
Max Wind Speed 25 mph    
Max Gust Speed 40 mph    
Visibility 10 miles    
Events      
T = Trace of Precipitation, MM = Missing Value Source: NWS Daily Summary

Daily Weather History Graph

Daily Weather History Graph

Search for Another Location

Airport or City:

Trip Planner

Search our weather history database for the weather conditions in past years. The results will help you decide how hot, cold, wet, or windy it might be!

Date:

Astronomy

Mar. 14, 2014 Rise Set
Actual Time 7:30 AM CDT 7:24 PM CDT
Civil Twilight 7:04 AM CDT 7:50 PM CDT
Nautical Twilight 6:34 AM CDT 8:20 PM CDT
Astronomical Twilight 6:03 AM CDT 8:51 PM CDT
Moon 5:48 PM CDT (3/14) 6:08 AM CDT (3/14)
Length of Visible Light 12h 45m
Length of Day
11h 54m
Waxing Gibbous, 96% of the Moon is Illuminated
Mar 14
Waxing Gibbous
Mar 16
Full
Mar 23
Last Quarter
Mar 30
New
Apr 7
First Quarter

Hourly Weather History & Observations

Time (CDT) Temp. Windchill Dew Point Humidity Pressure Visibility Wind Dir Wind Speed Gust Speed Precip Events Conditions
12:53 AM 51.1 °F - 24.1 °F 35% 29.94 in 10.0 mi South 13.8 mph - N/A   Clear
1:53 AM 51.1 °F - 25.0 °F 36% 29.93 in 10.0 mi South 16.1 mph 27.6 mph N/A   Clear
2:53 AM 50.0 °F - 26.1 °F 39% 29.92 in 10.0 mi SSW 17.3 mph - N/A   Clear
3:53 AM 51.1 °F - 27.0 °F 39% 29.91 in 10.0 mi SSW 18.4 mph 28.8 mph N/A   Clear
4:53 AM 52.0 °F - 28.0 °F 40% 29.89 in 10.0 mi SSW 21.9 mph 29.9 mph N/A   Clear
5:53 AM 51.1 °F - 28.0 °F 41% 29.88 in 10.0 mi SSW 17.3 mph 27.6 mph N/A   Clear
6:53 AM 52.0 °F - 28.0 °F 40% 29.88 in 10.0 mi SSW 19.6 mph - N/A   Clear
7:53 AM 52.0 °F - 28.0 °F 40% 29.88 in 10.0 mi SSW 19.6 mph - N/A   Clear
8:53 AM 55.0 °F - 28.9 °F 37% 29.89 in 10.0 mi SSW 20.7 mph 28.8 mph N/A   Scattered Clouds
9:53 AM 59.0 °F - 28.9 °F 32% 29.92 in 10.0 mi SW 18.4 mph 26.5 mph N/A   Mostly Cloudy
10:53 AM 61.0 °F - 30.0 °F 31% 29.93 in 10.0 mi SW 20.7 mph 28.8 mph N/A   Clear
11:53 AM 61.0 °F - 30.0 °F 31% 29.95 in 10.0 mi WSW 19.6 mph 33.4 mph N/A   Partly Cloudy
12:53 PM 64.0 °F - 30.0 °F 28% 29.96 in 10.0 mi WNW 16.1 mph 23.0 mph N/A   Scattered Clouds
1:53 PM 64.0 °F - 28.0 °F 26% 29.95 in 10.0 mi West 6.9 mph - N/A   Scattered Clouds
2:53 PM 63.0 °F - 28.9 °F 28% 29.95 in 10.0 mi West 8.1 mph - N/A   Clear
3:53 PM 66.0 °F - 28.0 °F 24% 29.94 in 10.0 mi West 8.1 mph - N/A   Clear
4:53 PM 66.0 °F - 27.0 °F 23% 29.95 in 10.0 mi WNW 6.9 mph - N/A   Clear
5:53 PM 64.9 °F - 26.1 °F 23% 29.95 in 10.0 mi NW 10.4 mph - N/A   Clear
6:53 PM 62.1 °F - 26.1 °F 25% 29.96 in 10.0 mi Variable 4.6 mph - N/A   Clear
7:53 PM 59.0 °F - 26.1 °F 28% 29.97 in 10.0 mi Calm Calm - N/A   Clear
8:53 PM 50.0 °F - 28.0 °F 43% 29.99 in 10.0 mi Calm Calm - N/A   Clear
9:53 PM 46.0 °F 43.1 °F 28.9 °F 51% 30.01 in 10.0 mi NNE 5.8 mph - N/A   Clear
10:53 PM 45.0 °F 43.5 °F 28.9 °F 53% 30.01 in 10.0 mi East 3.5 mph - N/A   Clear
11:53 PM 46.0 °F 43.9 °F 28.0 °F 50% 30.01 in 10.0 mi ESE 4.6 mph - N/A   Clear